Back to catalog

STARLINK-2033

AliveCommunicationsVLEO
NORAD 47650·PAYLOAD·🇺🇸 United States

Launched Feb 16, 2021 from Cape Canaveral Space Force Station

Loading…

Next Passes (next 24 hours)

TLE

FreshSource: CelesTrak SupGP

Epoch: Sep 14, 2026, 21:07 UTC

1 47650C 21012AG  26257.88034722  .00109240  00000+0  12870-2 0  2576
2 47650  53.1563 232.0756 0007513  60.0338 249.0279 15.60657287    19

Track STARLINK-2033 in real time with AllMySat

Download on the App Store